Flag for U.S.A. Weather past 2 weeks in Reston, Virginia, U.S.A.

Now
65 °F

Passing clouds.


Feels Like: 65 °F
Forecast: 53 / 68 °F
Wind: 21 mph from Northwest

Location: Washington-Dulles International Airport

Current Time: Sep 22, 2014 at 10:25:55 AM

Latest Report: Sep 22, 2014 at 9:52 AM


Visibility: 10 mi

Pressure: 30.01 "Hg

Humidity: 52%

Dew point: 47 °F

Location of RestonLocation

Historic Weather in Reston — Graph

°F

Reston temperature yesterday

Maximum temperature yesterday: 83 °F (at 3:52 PM)
Minimum temperature yesterday: 54 °F (at 6:52 AM)
Average temperature yesterday: 69 °F

Past Weeks' High & Low Weather Summary

 TemperatureHumidityPressure
High86 °F (Sep 11, 2:52 PM)100% (Sep 16, 4:52 AM)30.34 "Hg (Sep 16, 4:52 AM)
Low45 °F (Sep 14, 6:52 AM)36% (Sep 18, 4:52 PM)29.65 "Hg (Sep 21, 5:52 PM)
Average66 °F72%30.09 "Hg
* Reported Sep 7 8:52 AM — Sep 22 8:52 AM, Reston, Weather by CustomWeather, © 2014

Note: Actual official high and low records may vary slightly from our data, if they occured in-between our weather recording intervals... More about our weather records

Advertising

Reston weather history for previous 24 hours

 ConditionsComfort  
Time TempWeatherWind HumidityBarometerVisibility
8:52 AM
Sep 22
64 °FPassing clouds.15 mph58%29.98 "Hg9 mi
7:52 AM61 °FPassing clouds.7 mph67%29.97 "Hg10 mi
6:52 AM57 °FPassing clouds.8 mph72%29.93 "Hg10 mi
5:52 AM59 °FPassing clouds.6 mph64%29.90 "Hg10 mi
4:52 AM59 °FClear.6 mph64%29.86 "Hg10 mi
3:52 AM63 °FClear.12 mph56%29.84 "Hg10 mi
2:52 AM64 °FClear.10 mph54%29.83 "Hg10 mi
1:52 AM67 °FPassing clouds.10 mph49%29.82 "Hg10 mi
12:52 AM70 °FPassing clouds.21 mph46%29.79 "Hg10 mi
11:52 PM
Sep 21
72 °FPassing clouds.14 mph52%29.76 "Hg10 mi
10:52 PM74 °FOvercast.13 mph57%29.73 "Hg10 mi
9:52 PM73 °FPassing clouds.5 mph62%29.71 "Hg10 mi
8:52 PM75 °FPassing clouds.16 mph58%29.69 "Hg10 mi
7:52 PM71 °FScattered clouds.7 mph87%29.66 "Hg10 mi
6:52 PM79 °FPartly sunny.3 mph58%29.65 "Hg10 mi
5:52 PM81 °FScattered clouds.9 mph53%29.65 "Hg10 mi
4:52 PM83 °FScattered clouds.13 mph50%29.65 "Hg10 mi
3:52 PM83 °FScattered clouds.9 mph50%29.67 "Hg10 mi
2:52 PM82 °FScattered clouds.6 mph49%29.70 "Hg10 mi
1:52 PM81 °FPassing clouds.5 mph51%29.74 "Hg10 mi
12:52 PM79 °FPassing clouds.6 mph52%29.78 "Hg10 mi
11:52 AM75 °FPassing clouds.6 mph60%29.82 "Hg10 mi
10:52 AM71 °FScattered clouds.6 mph71%29.85 "Hg10 mi
Weather by CustomWeather, © 2014

See weather overviewHow to use our weather pages